Showing default

KIKU 2 (ETS 2), 9852

Orbit data source: Space-Track

KIKU 2 (ETS 2), 9852 is a payload satellite owned by NASDA (JP) in GEO that was launched on Wed, 23 Feb 1977 UTC via an N-1 launch vehicle from the Tanegashima Space Center (TNSTA). Payloads include a variety of satellites, spacecraft, and rockets equipped with specific instruments for various scientific and technological missions. These include communications satellites like Starlink; space stations such as the ISS; scientific satellites like the Hubble; Earth observation satellites from companies like Planet Labs, Umbra, and HawkEye 360; GPS; miniature CubeSats for education and research; and military/defense satellites.

Loading next visibility...
KIKU 2 (ETS 2) details
Identifier
9852, 1977-014A
Orbit
GEO
Last TLE update1 day ago
Origin
Flag of JPNASDA (JP / JPN)
ManufacturerMELCO/FORDA
MissionNon-operational Civil Communications
Bus & MotorETS-2, NASDA AKM
Mass254 kg wet, 108 kg dry
Launch date (UTC)
1977-02-23 (48 years ago)
Launch vehicle
N-1
Launch site
Tanegashima Space Center (TNSTA)
Object type
Payload
Rocket body
Debris
Shape & HBRPolyhedral Cyl, 1.4 m
Radar Cross Section1.759 m², Large (>1 m²)

Expand to show TLE details & history

TLE from 1 day ago
0 KIKU 2 (ETS 2)
1 09852U 77014A   24360.43392101  .00000066  00000-0  00000-0 0  9993
2 09852   6.6236 289.0250 0000990 300.3823 262.0914  0.99997874121833
Epoch: 2024-12-25T10:24Z
Definitive object data (Epoch: 2024-12-25T10:24:50.775Z)
Latitude-2.51765°
Longitude-119.30586°
Altitude35,864.027 km
Speed3.072 km/s
True Right ascension08h 45m 20s
True Declination-2° 30' 54"
Sunlit
Object was in daylight at TLE epoch
Visualization TLE readout
Latitude-5.96893°
Longitude-77.58582°
Altitude35,861.694 km
Speed3.072 km/s
Apparent Right ascension11h 24m 16s
Apparent Declination-12° 46' 29"
Sunlit
Object is in daylight
Visualization observer readout
Local Sidereal Time12:33:26
Azimuth200.703° SSW
Elevation34.911°
Doppler factor1
Orbital elements
Apogee altitude35,868.787 km
Perigee altitude35,860.423 km
Semi-major axis42,242.742 km
Eccentricity0.000099
Inclination6.6236°
RAAN289.025°
Arg. of periapsis300.3823°
True anomaly262.08016°
Mean anomaly262.0914°
Eccentric anomaly262.08578°
Mean motion0.24999 °/min
BSTARUnknown
Orbital period1440.08 mins
Loading historical data...
9852 neighbors
Authenticating...
Loading maneuver chart data...
Loading historical data...
Loading historical data...
Loading historical data...
Loading historical data...
Loading historical data...
Loading historical data...
Loading historical data...
Other satellites on launch #14 in the year 1977 (1977-02-23 UTC)

KIKU 2 (ETS 2) Visibility forecast

Observer location: undefined°, undefined

Span
Click to sort rows by Start time (UTC) header in descending order
Start Az.
Max El. time (UTC)
Max El. Az.
Max El.
End time (UTC)
End Az.
1440 mins2024-12-26 13:11:48.148Z200.696° SSW2024-12-27 03:01:48.148Z207.12° SW36.652°2024-12-27 13:11:48.148Z201.962° SSW
|